Find Starlink 36752

NORAD ID: 67724 Int'l Des: 2026-026 Owner: SPXS Country: US Constellation: starlink operational
LEOCIRCULARRETROGRADE

当前视图

正在加载3D地球...

关于 Starlink 36752

正在加载描述...

即将过境

Passes for default location (London). Set your location on the main map for personalized predictions.

高度历史

Loading altitude history...

两行轨道根数

1 67724U 26026D 26146.60578691 .00042702 00000-0 13177-2 0 9999
2 67724 97.2859 200.0608 0000568 348.8190 11.3040 15.33442689 16063
Epoch: May 26, 2026 • Age: 8 hours

当前状态

高度 467.6 km
速度 7.63 km/s
星下点 17.63°N, 23.13°W
发射日期 Feb 11, 2026
运行时间 0.2 years
类型 internet

技术详情

分类 Payload
质量 575.00 kg
干质量 530.00 kg
总质量 575.00 kg
长度 0.30 m
直径 4.10 m
跨度 29.00 m
形状 Box + pan
制造商 SPXS
平台类型 Starlink V2MO
阶段状态 In Orbit
所有者/国家 SPXS/US

Most Searched